Clara — V2CC9 — position and weather

sailwx.info

Track history (hours):
 
Tides and Currents Weather Stations Pressure Air Temp Water Temp Dewpoint Dewpoint Depression Visibility Wind Speed Wind Dir Waves Ship Positions

Clara

Last reported at 2014-Oct-30 22:10 UTC. Time now 2014-Oct-30 22:54 UTC.
Position N 36°50' W 009°13'.

Length 108 m; draft 4.1 m.

Type: Cargo ship. MMSI: 304983000.

Date/timePositionNaut miles runAvg speedWind from/ knotsBaromVisibWave heightAir tempDewpointWater temp
2014-Oct-30 22:10N 36°50' W 009°13'14 8.5
2014-Oct-30 20:33N 36°42' W 008°60'12 9.0
2014-Oct-30 19:12N 36°29' W 009°01'5 8.0
2014-Oct-30 18:33N 36°24' W 009°02'9 8.8
2014-Oct-30 17:33N 36°16' W 009°03'9 8.6
2014-Oct-30 16:33N 36°07' W 009°03'9 8.3
2014-Oct-30 15:32N 35°59' W 009°04'8 8.1
2014-Oct-30 14:31N 35°50' W 009°05'8 8.5
2014-Oct-30 13:32N 35°42' W 009°06'8 8.1
2014-Oct-30 12:30N 35°34' W 009°06'9 7.4
2014-Oct-30 11:21N 35°25' W 009°08'49 8.1
2014-Oct-30 05:17N 34°36' W 009°12'23 8.3
2014-Oct-30 02:33N 34°14' W 009°14'9 9.0
2014-Oct-30 01:33N 34°05' W 009°15'9 9.2
2014-Oct-30 00:32N 33°56' W 009°15'29 9.4
2014-Oct-29 21:25N 33°26' W 009°18'  
2014-Oct-21 20:26N 36°02' W 009°07'910.7
2014-Oct-21 19:33N 36°11' W 009°06'1110.7
2014-Oct-21 18:33N 36°22' W 009°05'8 8.5
2014-Oct-21 17:33N 36°30' W 009°08'1110.6
2014-Oct-21 16:33N 36°35' W 009°20'1111.1
2014-Oct-21 15:33N 36°43' W 009°29'1110.7
2014-Oct-21 14:33N 36°52' W 009°35'1111.0
2014-Oct-21 13:33N 37°03' W 009°38'1110.6
2014-Oct-21 12:33N 37°14' W 009°41'1010.4
2014-Oct-21 11:33N 37°24' W 009°44'1010.4
2014-Oct-21 10:33N 37°34' W 009°46'1010.1
2014-Oct-21 09:32N 37°44' W 009°48'1010.1
2014-Oct-21 08:33N 37°54' W 009°51'1010.1
2014-Oct-21 07:33N 38°04' W 009°54'1010.3
2014-Oct-21 06:33N 38°14' W 009°57'1110.6
2014-Oct-21 05:32N 38°24' W 010°00'1010.5
2014-Oct-21 04:33N 38°34' W 010°03'1310.4
2014-Oct-21 03:17N 38°47' W 010°05'811.1
2014-Oct-21 02:33N 38°55' W 010°05'1211.1
2014-Oct-21 01:31N 39°07' W 010°05'  
Track history (hours):
 
Tides and Currents Weather Stations Pressure Air Temp Water Temp Dewpoint Dewpoint Depression Visibility Wind Speed Wind Dir Waves Ship Positions

Clara

Last reported at 2014-Oct-30 22:10 UTC. Time now 2014-Oct-30 22:54 UTC.
Position N 36°50' W 009°13'.

Length 108 m; draft 4.1 m.

Type: Cargo ship. MMSI: 304983000.

Date/timePositionNaut miles runAvg speedWind from/ knotsBaromVisibWave heightAir tempDewpointWater temp
2014-Oct-30 22:10N 36°50' W 009°13'14 8.5
2014-Oct-30 20:33N 36°42' W 008°60'12 9.0
2014-Oct-30 19:12N 36°29' W 009°01'5 8.0
2014-Oct-30 18:33N 36°24' W 009°02'9 8.8
2014-Oct-30 17:33N 36°16' W 009°03'9 8.6
2014-Oct-30 16:33N 36°07' W 009°03'9 8.3
2014-Oct-30 15:32N 35°59' W 009°04'8 8.1
2014-Oct-30 14:31N 35°50' W 009°05'8 8.5
2014-Oct-30 13:32N 35°42' W 009°06'8 8.1
2014-Oct-30 12:30N 35°34' W 009°06'9 7.4
2014-Oct-30 11:21N 35°25' W 009°08'49 8.1
2014-Oct-30 05:17N 34°36' W 009°12'23 8.3
2014-Oct-30 02:33N 34°14' W 009°14'9 9.0
2014-Oct-30 01:33N 34°05' W 009°15'9 9.2
2014-Oct-30 00:32N 33°56' W 009°15'29 9.4
2014-Oct-29 21:25N 33°26' W 009°18'  
2014-Oct-21 20:26N 36°02' W 009°07'910.7
2014-Oct-21 19:33N 36°11' W 009°06'1110.7
2014-Oct-21 18:33N 36°22' W 009°05'8 8.5
2014-Oct-21 17:33N 36°30' W 009°08'1110.6
2014-Oct-21 16:33N 36°35' W 009°20'1111.1
2014-Oct-21 15:33N 36°43' W 009°29'1110.7
2014-Oct-21 14:33N 36°52' W 009°35'1111.0
2014-Oct-21 13:33N 37°03' W 009°38'1110.6
2014-Oct-21 12:33N 37°14' W 009°41'1010.4
2014-Oct-21 11:33N 37°24' W 009°44'1010.4
2014-Oct-21 10:33N 37°34' W 009°46'1010.1
2014-Oct-21 09:32N 37°44' W 009°48'1010.1
2014-Oct-21 08:33N 37°54' W 009°51'1010.1
2014-Oct-21 07:33N 38°04' W 009°54'1010.3
2014-Oct-21 06:33N 38°14' W 009°57'1110.6
2014-Oct-21 05:32N 38°24' W 010°00'1010.5
2014-Oct-21 04:33N 38°34' W 010°03'1310.4
2014-Oct-21 03:17N 38°47' W 010°05'811.1
2014-Oct-21 02:33N 38°55' W 010°05'1211.1
2014-Oct-21 01:31N 39°07' W 010°05'  

Dump ship's entire track history